| time (UTC) | temp F | wind direction | speed knots | gust knots | rain 1hr in | rain 24hr in | rain mn in | humidity % | barometer mb |
| 20260505003546 | 62 | 300 | 0.0 | 0.9 | 0.00 | 0.00 | 0.00 | 50 | |
| 20260505002546 | 63 | 116 | 0.0 | 0.0 | 0.00 | 0.00 | 0.00 | 49 | |
| 20260505001547 | 63 | 357 | 0.9 | 2.6 | 0.00 | 0.00 | 0.00 | 48 | |
| 20260505000607 | 63 | 92 | 0.9 | 2.6 | 0.00 | 0.00 | 0.00 | 47 | |
| 20260504235547 | 64 | 335 | 0.9 | 1.7 | 0.00 | 0.00 | 0.00 | 46 | |
| 20260504234549 | 65 | 188 | 0.0 | 1.7 | 0.00 | 0.00 | 0.00 | 45 | |
| 20260504233547 | 65 | 250 | 0.0 | 1.7 | 0.00 | 0.00 | 0.00 | 46 | |
| 20260504232547 | 66 | 220 | 0.9 | 1.7 | 0.00 | 0.00 | 0.00 | 45 | |
| 20260504231548 | 66 | 224 | 0.9 | 1.7 | 0.00 | 0.00 | 0.00 | 45 | |
| 20260504230547 | 67 | 223 | 0.0 | 1.7 | 0.00 | 0.00 | 0.00 | 43 | |
| 20260504225548 | 68 | 46 | 0.9 | 2.6 | 0.00 | 0.00 | 0.00 | 42 | |
| 20260504224608 | 68 | 259 | 1.7 | 4.3 | 0.00 | 0.00 | 0.00 | 40 | |
| 20260504223548 | 68 | 224 | 0.9 | 7.0 | 0.00 | 0.00 | 0.00 | 42 | |
| 20260504222550 | 68 | 242 | 0.9 | 1.7 | 0.00 | 0.00 | 0.00 | 41 | |
| 20260504221550 | 69 | 274 | 0.9 | 2.6 | 0.00 | 0.00 | 0.00 | 43 | |
| 20260504220549 | 69 | 160 | 0.9 | 4.3 | 0.00 | 0.00 | 0.00 | 40 | |
| 20260504215609 | 69 | 306 | 1.7 | 5.2 | 0.00 | 0.00 | 0.00 | 39 | |
| 20260504214549 | 70 | 284 | 0.9 | 2.6 | 0.00 | 0.00 | 0.00 | 41 | |
| 20260504213610 | 70 | 6 | 0.9 | 3.5 | 0.00 | 0.00 | 0.00 | 39 | |
| 20260504212549 | 70 | 227 | 1.7 | 5.2 | 0.00 | 0.00 | 0.00 | 39 | |
| 20260504211550 | 70 | 311 | 1.7 | 3.5 | 0.00 | 0.00 | 0.00 | 39 | |
| 20260504210550 | 70 | 278 | 0.9 | 3.5 | 0.00 | 0.00 | 0.00 | 39 | |
| 20260504205551 | 71 | 287 | 1.7 | 3.5 | 0.00 | 0.00 | 0.00 | 38 | |
| 20260504204551 | 72 | 328 | 1.7 | 7.0 | 0.00 | 0.00 | 0.00 | 38 | |
| 20260504203551 | 71 | 302 | 0.9 | 2.6 | 0.00 | 0.00 | 0.00 | 38 | |
| 20260504202550 | 72 | 286 | 1.7 | 5.2 | 0.00 | 0.00 | 0.00 | 38 | |
| 20260504201551 | 71 | 245 | 1.7 | 4.3 | 0.00 | 0.00 | 0.00 | 39 | |
| 20260504200611 | 72 | 311 | 2.6 | 6.1 | 0.00 | 0.00 | 0.00 | 38 | |
| 20260504195552 | 72 | 280 | 1.7 | 4.3 | 0.00 | 0.00 | 0.00 | 37 | |
| 20260504194553 | 71 | 286 | 1.7 | 5.2 | 0.00 | 0.00 | 0.00 | 38 | |
| 20260504193632 | 71 | 274 | 1.7 | 4.3 | 0.00 | 0.00 | 0.00 | 38 | |
| 20260504192552 | 70 | 235 | 1.7 | 7.0 | 0.00 | 0.00 | 0.00 | 38 | |
| 20260504191552 | 70 | 185 | 2.6 | 6.1 | 0.00 | 0.00 | 0.00 | 38 | |
| 20260504190552 | 69 | 215 | 0.9 | 3.5 | 0.00 | 0.00 | 0.00 | 38 | |
| 20260504185552 | 69 | 269 | 0.9 | 4.3 | 0.00 | 0.00 | 0.00 | 38 | |
| 20260504184552 | 69 | 260 | 1.7 | 4.3 | 0.00 | 0.00 | 0.00 | 38 | |
| 20260504183553 | 70 | 275 | 1.7 | 7.8 | 0.00 | 0.00 | 0.00 | 37 | |
| 20260504182553 | 71 | 331 | 1.7 | 7.8 | 0.00 | 0.00 | 0.00 | 37 | |
| 20260504181553 | 71 | 164 | 2.6 | 7.0 | 0.00 | 0.00 | 0.00 | 37 | |
| 20260504180553 | 72 | 274 | 2.6 | 7.0 | 0.00 | 0.00 | 0.00 | 37 | |
| 20260504175553 | 71 | 279 | 1.7 | 4.3 | 0.00 | 0.00 | 0.00 | 38 | |
| 20260504174553 | 70 | 148 | 1.7 | 5.2 | 0.00 | 0.00 | 0.00 | 38 | |
| 20260504173554 | 71 | 177 | 2.6 | 7.0 | 0.00 | 0.00 | 0.00 | 37 | |
| 20260504172555 | 71 | 283 | 2.6 | 6.1 | 0.00 | 0.00 | 0.00 | 37 | |
| 20260504171554 | 71 | 258 | 2.6 | 6.1 | 0.00 | 0.00 | 0.00 | 38 | |
| 20260504170555 | 70 | 295 | 2.6 | 5.2 | 0.00 | 0.00 | 0.00 | 39 | |
| 20260504150556 | 65 | 296 | 1.7 | 6.1 | 0.00 | 0.00 | 0.00 | 43 | |
| 20260504140557 | 62 | 291 | 1.7 | 6.1 | 0.00 | 0.00 | 0.00 | 48 | |
| 20260504130558 | 57 | 281 | 1.7 | 3.5 | 0.00 | 0.00 | 0.00 | 53 | |
| 20260504110620 | 43 | 22 | 0.0 | 1.7 | 0.00 | 0.00 | 0.00 | 72 | |
| 20260504100603 | 42 | 331 | 0.9 | 1.7 | 0.00 | 0.00 | 0.00 | 75 | |
| 20260504081625 | 42 | 116 | 0.0 | 0.9 | 0.00 | 0.00 | 0.00 | 77 | |
| 20260504080606 | 42 | 0.0 | 0.0 | 0.00 | 0.00 | 0.00 | 71 | ||
| 20260504050629 | 34 | 342 | 0.9 | 0.9 | 0.00 | 0.00 | 0.00 | 87 | |
| 20260504045609 | 34 | 333 | 0.9 | 1.7 | 0.00 | 0.00 | 0.00 | 86 | |
| 20260504044609 | 35 | 337 | 0.9 | 0.9 | 0.00 | 0.00 | 0.00 | 86 | |
| 20260504043609 | 35 | 340 | 0.0 | 0.9 | 0.00 | 0.00 | 0.00 | 84 | |
| 20260504042609 | 35 | 334 | 0.0 | 0.9 | 0.00 | 0.00 | 0.00 | 84 | |
| 20260504041609 | 35 | 350 | 0.9 | 1.7 | 0.00 | 0.00 | 0.00 | 84 | |
| 20260504040609 | 34 | 343 | 0.9 | 0.9 | 0.00 | 0.00 | 0.00 | 87 | |
| 20260504035611 | 34 | 352 | 0.0 | 0.9 | 0.00 | 0.00 | 0.00 | 89 | |
| 20260504034610 | 34 | 328 | 0.0 | 0.9 | 0.00 | 0.00 | 0.00 | 89 | |
| 20260504033609 | 35 | 319 | 0.0 | 0.9 | 0.00 | 0.00 | 0.00 | 89 | |
| 20260504032650 | 35 | 310 | 0.0 | 0.9 | 0.00 | 0.00 | 0.00 | 89 | |
| 20260504031610 | 35 | 331 | 0.0 | 0.9 | 0.00 | 0.00 | 0.00 | 88 | |
| 20260504030610 | 35 | 300 | 0.0 | 0.9 | 0.00 | 0.00 | 0.00 | 88 | |
| 20260504025611 | 35 | 297 | 0.0 | 0.9 | 0.00 | 0.00 | 0.00 | 87 | |
| 20260504024611 | 36 | 291 | 0.0 | 0.9 | 0.00 | 0.00 | 0.00 | 87 | |
| 20260504023611 | 36 | 294 | 0.0 | 0.9 | 0.00 | 0.00 | 0.00 | 86 | |
| 20260504022612 | 36 | 300 | 0.0 | 0.9 | 0.00 | 0.00 | 0.00 | 85 | |
| 20260504021612 | 37 | 332 | 0.0 | 0.9 | 0.00 | 0.00 | 0.00 | 84 | |
| 20260504020631 | 37 | 304 | 0.0 | 0.9 | 0.00 | 0.00 | 0.00 | 83 | |
| 20260504015613 | 37 | 282 | 0.0 | 0.9 | 0.00 | 0.00 | 0.00 | 80 | |
| 20260504014612 | 38 | 313 | 0.0 | 0.9 | 0.00 | 0.00 | 0.00 | 80 | |
| 20260504013611 | 38 | 317 | 0.0 | 0.9 | 0.00 | 0.00 | 0.00 | 79 | |
| 20260504012614 | 39 | 310 | 0.0 | 0.9 | 0.00 | 0.00 | 0.00 | 78 | |
| 20260504011612 | 40 | 312 | 0.0 | 0.9 | 0.00 | 0.00 | 0.00 | 76 | |
| 20260504010611 | 40 | 0.0 | 0.0 | 0.00 | 0.00 | 0.00 | 74 | ||
| 20260504005611 | 41 | 292 | 0.0 | 1.7 | 0.00 | 0.00 | 0.00 | 73 | |
| 20260504004611 | 42 | 314 | 0.0 | 0.9 | 0.00 | 0.00 | 0.00 | 67 |